Dauntless Aviation
Greetings, Guest! To participate, [sign up for a free account] or [log in]
Airports North America United States Florida
0J8

FLYING TEN AIRPORT

ARCHER, FL, USA

Airport Info

Location

Latitude / Longitude: 29°37'4"N / 82°30'31"W
  29°37.0813'N / 82°30.5232'W
  29.6180 / -82.5087
Elevation: 85 ft. (estimated)
Variation: 02W (1985)
From city: 05 miles N of ARCHER, FL

Operations

Facility use: Open to the public
Sectional chart: JACKSONVILLE
Control tower: no
Boundary ARTCC: JACKSONVILLE
FSS: GAINESVILLE [1-800-WX-BRIEF]
NOTAMs facility: GNV (NOTAM-D service available)
Segmented circle: no
Lights: PHONE REQ
Landing fee: no

Communications

CTAF: 122.900

Nearby radio navigation aids

VOR radial/distance VOR name Freq Var
GNV 250oT/13.1 GATORS VORTAC 116.20 04W
CTY 88oT/28.2 CROSS CITY VORTAC 112.00 02W
OCF 331oT/30.3 OCALA VORTAC 113.70 00E
 
NDB name Hdg/Dist Freq Var ID
WYNDS 260oT/17.8 269 04W GN
LAKE CITY 174oT/34.3 204 03W LCQ
PALATKA 267oT/36.4 243 05W IAK

Services

Fuel available: 100LL
Bottled oxygen: NONE
Bulk oxygen: NONE

Runway Information

Runway 18/36

Dimensions: 3200 x 170 ft.
Surface: GRASS; SOD,FAIR CONDITION,NO SPECIAL SURFACE TREATMENT
Edge lights: NON-STANDARD LIGHTING SYSTEM
 
Runway 18
Runway 36
Traffic pattern: left left
 

Operational Statistics

Annual operations: 30000
Local: 20000
Itinerant: 10000

Additional Remarks

Instrument Procedures

No published instrument procedures available
Topographic chart at:
Satellite photo at:
Airport distance calculator
From:
Weather Reports

METAR

KGNV
12.7nm NE
KGNV 280253Z AUTO 01005KT 8SM FEW110 20/19 A2985 RMK AO2 SLP106 60001 T02000189 50010
K42J
27.7nm NE
K42J 280335Z AUTO 06005KT 3SM OVC002 20/20 A2985 RMK AO1 TSNO
KCTY
30.9nm W
KCTY 280253Z AUTO 03006KT 21/19 A2982 RMK AO1 SLP096 60002 T02060194 58004
KOCF
31.1nm SE
KOCF 280335Z AUTO 18010KT 10SM CLR 19/18 A2982 RMK AO1

TAF

KGNV
12.7nm NE
KGNV 280241Z 2803/2824 17005KT P6SM VCSH SCT025 BKN120 FM280600 06004KT 5SM BR VCSH BKN015 OVC025 FM281400 09007KT P6SM -SHRA OVC020
Safelog

 

Dauntless Aviation

© 2007-2015 Dauntless Aviation, all rights reserved
Information provided via PilotNav comes from a variety of official and unofficial data sources. As errors are possible, do not use PilotNav for primary flight planning purposes. Verify any information that you receive via PilotNav with current and canonical charts and other official documents. The material in this database is subject to database copyrights held by Dauntless Aviation and may not be copied without the express permission of Dauntless Aviation - licenses for use of part of all of this data are available for purchase; enquire via the Dauntless Aviation helpdesk. A number of mechanisms and markers exist in the database to protect against and identify infringement / copyright. Automated queries against this website are stictly prohibited, and all activity is logged and analyzed.